{"data":{"norad_id":63879,"epoch":"2026-09-20T22:00:03.000096Z","epoch_age_seconds":110970,"freshness":"FRESH","line1":"1 63879U 25094R   26263.91670139  .00037575  00000+0  12726-2 0  9994","line2":"2 63879  70.0002 100.0442 0003744 273.4104 343.7612 15.30395341  5571","mean_motion":15.30395341,"eccentricity":0.0003744,"inclination_deg":70.0002,"raan_deg":100.0442,"arg_perigee_deg":273.4104,"mean_anomaly_deg":343.7612,"bstar":0.0012726,"rev_number":557,"period_min":94.093334017801,"perigee_km":472.06620177567,"apogee_km":477.19755511185,"semimajor_km":6852.7688784438,"source":"CELESTRAK","updated_at":"2026-09-21T09:00:35.140187Z"}}